Satellite: LO-19
Catalog number: 20442
Epoch time:      05285.68228581
Element set:     509
Inclination:      098.2170 deg
RA of node:       313.5812 deg
Eccentricity:    0.0011474
Arg of perigee:   207.7003 deg
Mean anomaly:     152.3616 deg
Mean motion:   14.31940086 rev/day
Decay rate:        3.6e-07 rev/day^2
Epoch rev:           82103
Checksum:              276

Satellite: UO-22
Catalog number: 21575
Epoch time:      05285.95126330
Element set:    0529
Inclination:      098.2607 deg
RA of node:       246.9340 deg
Eccentricity:    0.0008437
Arg of perigee:   096.0478 deg
Mean anomaly:     264.1687 deg
Mean motion:   14.39512306 rev/day
Decay rate:        8.0e-07 rev/day^2
Epoch rev:           74744
Checksum:              318

Satellite: KO-23
Catalog number: 22077
Epoch time:      05285.84325051
Element set:     602
Inclination:      066.0842 deg
RA of node:       260.0477 deg
Eccentricity:    0.0012834
Arg of perigee:   228.4552 deg
Mean anomaly:     131.5367 deg
Mean motion:   12.86433277 rev/day
Decay rate:       -3.7e-07 rev/day^2
Epoch rev:           61872
Checksum:              292

Satellite: AO-27
Catalog number: 22825
Epoch time:      05285.74683889
Element set:     237
Inclination:      098.2622 deg
RA of node:       275.0795 deg
Eccentricity:    0.0007431
Arg of perigee:   275.3834 deg
Mean anomaly:     084.6476 deg
Mean motion:   14.29147168 rev/day
Decay rate:        2.0e-08 rev/day^2
Epoch rev:           62801
Checksum:              333

Satellite: IO-26
Catalog number: 22826
Epoch time:      05285.96864500
Element set:    0926
Inclination:      098.2567 deg
RA of node:       276.5578 deg
Eccentricity:    0.0008215
Arg of perigee:   276.7454 deg
Mean anomaly:     083.2792 deg
Mean motion:   14.29389241 rev/day
Decay rate:        1.7e-07 rev/day^2
Epoch rev:           62811
Checksum:              342

Satellite: KO-25
Catalog number: 22828
Epoch time:      05285.87029808
Element set:    0167
Inclination:      098.2512 deg
RA of node:       276.6448 deg
Eccentricity:    0.0009080
Arg of perigee:   252.3966 deg
Mean anomaly:     107.6230 deg
Mean motion:   14.29700629 rev/day
Decay rate:        2.2e-07 rev/day^2
Epoch rev:           59633
Checksum:              319

Satellite: PO-28
Catalog number: 22829
Epoch time:      05285.94133883
Element set:    0210
Inclination:      098.2475 deg
RA of node:       277.7290 deg
Eccentricity:    0.0008813
Arg of perigee:   247.9387 deg
Mean anomaly:     112.0874 deg
Mean motion:   14.30070285 rev/day
Decay rate:        5.3e-07 rev/day^2
Epoch rev:           62830
Checksum:              315

Satellite: TO-31
Catalog number: 25396
Epoch time:      05284.02152589
Element set:    0369
Inclination:      098.5178 deg
RA of node:       347.7270 deg
Eccentricity:    0.0002825
Arg of perigee:   183.2384 deg
Mean anomaly:     176.8781 deg
Mean motion:   14.23684025 rev/day
Decay rate:       -4.3e-07 rev/day^2
Epoch rev:           37689
Checksum:              337

Satellite: GO-32
Catalog number: 25397
Epoch time:      05285.84168956
Element set:    0860
Inclination:      098.5068 deg
RA of node:       346.7709 deg
Eccentricity:    0.0001390
Arg of perigee:   173.3380 deg
Mean anomaly:     186.7816 deg
Mean motion:   14.23089795 rev/day
Decay rate:        7.7e-07 rev/day^2
Epoch rev:           37706
Checksum:              355

Satellite: UO-36
Catalog number: 25693
Epoch time:      05286.57069396
Element set:     660
Inclination:      064.5586 deg
RA of node:       280.1430 deg
Eccentricity:    0.0011421
Arg of perigee:   202.7649 deg
Mean anomaly:     157.2938 deg
Mean motion:   14.78545142 rev/day
Decay rate:       -6.8e-07 rev/day^2
Epoch rev:           34932
Checksum:              326

Satellite: SO-41
Catalog number: 26545
Epoch time:      05285.87657657
Element set:    0197
Inclination:      064.5574 deg
RA of node:       295.5562 deg
Eccentricity:    0.0055533
Arg of perigee:   287.5235 deg
Mean anomaly:     071.9832 deg
Mean motion:   14.80175216 rev/day
Decay rate:       3.00e-06 rev/day^2
Epoch rev:           27235
Checksum:              330

Satellite: MO-46
Catalog number: 26548
Epoch time:      05285.94741908
Element set:    0310
Inclination:      064.5572 deg
RA of node:       276.3764 deg
Eccentricity:    0.0051021
Arg of perigee:   281.4643 deg
Mean anomaly:     078.0754 deg
Mean motion:   14.82828115 rev/day
Decay rate:       3.35e-06 rev/day^2
Epoch rev:           27275
Checksum:              317

Satellite: SO-42
Catalog number: 26549
Epoch time:      05285.55013600
Element set:    0267
Inclination:      064.5576 deg
RA of node:       305.8222 deg
Eccentricity:    0.0058168
Arg of perigee:   290.7622 deg
Mean anomaly:     068.7259 deg
Mean motion:   14.79048773 rev/day
Decay rate:        8.6e-07 rev/day^2
Epoch rev:           27211
Checksum:              323

Satellite: NO-44
Catalog number: 26931
Epoch time:      05285.86928085
Element set:    0143
Inclination:      067.0523 deg
RA of node:       284.6955 deg
Eccentricity:    0.0005659
Arg of perigee:   270.3252 deg
Mean anomaly:     089.7218 deg
Mean motion:   14.29406402 rev/day
Decay rate:       1.33e-06 rev/day^2
Epoch rev:           21058
Checksum:              311

